EHI
0 0 0 0 0 0 0 0 0 0 0 0 0 0 0 1 2 3 3 4 5 5 8 11 12 10 9 10 11 12 12 11 10 8 5 4 4 5 5 4 2 1 1 3
0 0 0 0 0 0 0 0 0 0 0 0 0 0 0 0 1 3 3 3 4 6 9 11 12 11 9 9 9 11 12 11 10 8 7 5 5 5 5 4 3 1 1 1
0 0 0 0 0 0 0 0 0 0 0 0 0 0 0 0 1 2 3 3 5 7 9 11 12 13 11 8 7 8 11 13 11 10 10 9 7 6 6 4 3 2 1 1
0 0 0 0 0 0 0 0 0 0 1 0 0 0 0 0 0 1 2 3 6 8 9 10 12 13 12 9 7 7 9 12 12 11 11 11 9 6 5 4 3 3 3 2
0 0 0 0 0 0 0 0 0 0 0 0 0 0 0 0 0 1 2 4 7 9 10 10 11 13 13 11 9 8 9 12 12 11 11 11 9 7 5 4 4 3 3 3
0 0 0 0 0 0 0 0 0 0 0 0 0 0 0 1 1 3 4 6 9 11 11 11 11 14 15 14 12 10 10 12 12 10 9 9 9 6 5 5 4 4 3 3
0 0 0 0 0 0 0 0 0 0 0 0 0 0 0 1 3 4 5 7 10 11 11 10 12 14 15 13 12 11 11 12 12 9 7 6 5 4 3 4 4 3 3 2
0 0 0 0 0 0 0 0 0 0 0 0 0 0 0 1 2 4 6 8 10 9 8 9 12 13 12 12 11 10 10 12 12 8 5 3 2 1 1 2 3 2 1 1
0 0 0 0 0 0 0 0 0 0 0 0 0 0 0 0 1 2 6 9 8 7 6 7 9 10 11 12 11 10 11 12 12 8 5 3 2 1 0 0 1 1 0 0
0 0 0 0 0 0 0 0 0 0 0 0 0 0 0 0 0 2 4 6 6 5 5 5 6 7 10 13 13 12 11 11 10 7 4 3 2 1 0 0 0 0 0 0
0 0 0 0 0 0 0 0 0 0 0 0 0 0 0 0 0 2 3 4 4 4 3 3 4 5 8 13 14 13 10 8 6 4 3 2 1 0 0 0 0 0 0 0
0 0 0 0 0 0 0 0 0 0 0 0 0 0 0 0 1 2 3 3 3 3 4 4 4 5 8 12 15 13 9 5 3 3 3 2 1 0 0 0 0 0 0 0
0 0 0 0 0 0 0 0 0 0 0 0 0 0 0 0 2 3 3 4 4 4 5 6 5 6 8 12 14 13 10 6 4 4 4 3 1 0 0 0 0 0 0 0
0 0 0 0 0 0 0 0 0 0 0 0 0 0 0 0 1 3 4 5 5 6 6 6 6 6 8 10 12 13 10 7 5 5 5 5 3 1 0 0 0 0 0 0
0 0 0 0 0 0 0 0 0 0 0 0 0 0 0 0 1 2 3 4 6 7 7 6 6 6 7 8 11 12 10 7 6 6 6 6 4 1 0 0 0 0 0 0
0 0 0 0 0 0 0 0 0 0 0 0 0 0 0 0 1 2 3 4 5 6 8 8 7 6 6 7 9 10 9 7 6 6 6 5 4 2 1 0 0 0 0 0
0 0 0 0 0 0 0 0 0 0 0 0 0 0 0 0 0 1 3 5 6 7 7 7 7 6 6 7 9 10 9 7 6 6 5 4 3 3 2 1 1 0 0 0
0 0 0 0 0 0 0 0 0 0 0 0 0 0 0 0 0 1 2 4 5 6 6 5 5 5 4 6 8 10 8 6 4 4 4 3 3 3 3 3 2 1 1 0
0 0 0 0 0 0 0 0 0 0 0 0 0 0 0 0 0 0 1 2 3 4 4 4 4 4 3 5 8 9 7 4 3 3 3 3 3 3 3 3 3 3 2 1
0 0 0 0 0 0 0 0 0 0 0 0 0 0 0 0 0 0 0 1 3 3 3 3 3 3 3 4 6 7 5 3 3 3 3 3 3 3 3 3 3 3 3 3
0 0 0 0 0 0 0 0 0 0 0 0 0 0 0 0 0 0 0 2 3 3 3 3 3 3 3 3 4 4 3 2 3 3 3 3 3 3 3 3 3 3 3 3
0 0 0 0 0 0 0 0 0 0 0 0 0 0 0 0 0 0 0 1 3 3 3 3 3 3 3 3 4 3 1 1 1 2 3 3 3 3 3 3 3 3 3 3
0 0 0 0 0 0 0 0 0 0 0 0 0 0 0 0 0 0 0 1 2 3 3 3 3 3 3 4 4 3 1 1 0 1 3 3 3 3 3 3 3 3 3 3
0 0 0 0 0 0 0 0 0 0 0 0 0 0 0 0 0 0 0 0 1 3 3 3 3 3 3 3 3 2 1 1 0 1 2 3 3 3 3 3 3 3 3 3
0 0 0 0 0 0 0 1 1 0 0 0 0 0 0 0 0 0 0 0 1 2 3 3 3 3 3 3 1 0 1 1 0 1 2 3 3 3 3 3 3 3 3 3
0 0 0 0 0 0 1 2 2 1 0 0 0 0 0 0 0 0 0 0 0 1 3 3 3 3 3 2 1 0 0 0 0 1 2 3 3 3 3 3 3 3 3 3
Wind_Speed
3 4 5 8 8 6 4 3 5 7 5 2 5 6 5 3 2 3 3 3 4 4 3 3 4 5 5 5 6 6 6 5 5 4 4 3 3 2 2 2 2 3 3 3
3 5 9 5 5 4 4 3 5 7 3 2 3 4 4 3 4 5 5 5 5 4 3 3 4 4 5 5 5 6 6 6 6 4 4 3 3 2 2 1 2 2 3 3
8 6 4 5 4 4 5 5 5 5 4 2 1 4 3 2 1 1 3 4 4 5 5 5 5 4 4 5 5 5 5 5 5 4 3 3 2 1 1 1 1 2 2 3
6 6 3 4 5 6 6 7 6 4 1 4 1 3 5 2 2 2 3 3 3 4 4 4 5 5 5 5 5 4 5 5 5 5 5 5 4 4 3 2 2 1 2 2
7 5 5 7 8 8 7 4 4 3 3 2 1 2 6 1 3 5 4 4 4 4 5 6 6 6 5 5 5 5 5 4 4 5 6 5 4 3 2 2 2 2 1 2
6 3 5 7 5 6 4 3 3 4 3 2 4 4 6 3 5 5 4 4 4 4 5 5 4 4 4 4 4 4 5 4 4 5 5 5 5 4 4 3 2 2 1 1
3 3 3 3 1 0 4 5 3 3 2 6 2 3 7 5 4 5 5 5 4 4 5 5 5 5 5 5 5 5 5 4 4 4 4 4 5 5 5 4 3 2 1 1
3 5 4 4 6 6 5 8 7 5 5 4 1 4 6 4 3 2 2 2 3 3 4 5 6 6 5 5 5 5 5 4 4 4 4 3 3 3 2 3 3 3 2 2
6 6 4 3 3 7 5 5 6 6 2 1 4 4 6 2 2 2 0 1 3 3 4 4 4 4 5 5 5 6 6 4 4 4 4 3 3 3 3 2 2 2 1 2
6 4 4 2 3 2 5 7 5 5 5 3 4 3 4 3 3 2 1 2 2 3 3 3 3 4 4 4 4 4 5 4 3 4 4 3 3 3 3 2 2 2 1 1
4 4 3 1 3 4 3 3 4 4 4 5 3 6 5 6 5 4 3 2 2 3 4 4 4 4 4 3 4 4 4 4 3 3 3 3 2 2 2 2 2 2 2 2
3 4 2 4 3 2 4 5 6 5 4 4 4 7 3 3 3 3 2 2 1 2 3 3 4 5 4 4 4 4 4 4 4 4 3 3 2 2 2 2 2 2 2 2
3 4 1 3 3 2 1 2 3 4 4 4 4 7 1 2 1 1 1 1 1 1 2 3 3 4 5 4 4 4 4 3 3 4 4 3 2 2 2 2 2 2 2 2
5 3 5 7 6 3 2 1 3 5 4 4 6 6 4 2 1 2 1 1 2 2 2 3 3 3 4 4 4 4 3 3 4 4 4 3 3 3 3 2 2 2 2 2
4 2 2 3 2 2 2 3 3 4 6 7 6 6 6 4 3 2 2 2 3 2 2 2 3 3 4 4 3 4 4 4 4 4 4 3 3 2 2 2 2 1 2 2
3 2 1 1 1 2 2 3 3 3 3 4 3 5 3 1 0 1 1 2 3 2 2 1 2 3 4 4 5 4 4 3 4 4 3 3 2 2 2 2 2 1 1 1
1 3 2 2 2 0 3 4 3 2 2 4 5 5 1 0 1 2 2 2 2 2 2 2 2 3 3 3 4 5 4 3 3 3 2 2 2 2 2 2 2 2 1 1
3 3 2 1 1 4 5 1 2 2 1 1 1 2 2 3 3 0 1 3 2 1 2 2 2 2 2 3 3 3 4 4 4 3 2 2 2 2 2 2 2 1 1 1
5 5 3 2 2 4 3 0 1 2 2 0 1 1 1 1 3 2 2 1 1 2 2 2 2 2 2 3 4 4 4 4 3 3 3 2 3 3 2 2 2 1 1 1
3 3 4 3 2 4 4 3 2 2 2 1 1 1 0 2 2 2 1 1 1 2 2 3 3 3 2 2 4 5 4 3 3 3 3 2 3 3 3 2 1 1 1 1
3 2 2 3 3 5 4 3 1 3 5 2 1 1 1 1 3 2 1 1 1 2 3 3 3 3 2 2 3 4 3 3 3 2 2 2 2 2 2 2 1 1 1 1
2 2 3 3 3 6 3 2 2 3 2 0 0 1 1 1 1 1 1 2 2 3 3 3 3 2 2 2 3 3 2 2 2 2 2 2 2 2 2 2 1 1 1 1
2 3 3 4 5 3 2 1 2 1 0 1 1 1 1 0 1 1 2 2 2 2 2 3 3 2 2 2 2 3 1 1 2 3 2 2 1 1 2 2 2 1 1 1
2 1 1 1 3 3 3 3 3 1 1 1 1 1 1 1 1 1 1 2 2 2 2 2 3 3 2 1 1 2 1 2 3 3 2 2 2 1 1 1 1 1 1 2
2 1 0 1 3 3 4 3 3 2 1 1 1 0 1 1 1 1 1 1 1 2 2 2 3 3 2 1 1 2 2 2 2 2 2 1 2 2 1 1 1 2 2 3
2 2 3 4 3 2 3 4 3 2 2 1 1 2 1 1 2 1 1 1 2 2 2 2 2 2 2 2 1 1 2 2 3 2 1 1 1 1 1 1 0 1 0 1
Wind_Direction
128 107 203 210 195 199 200 214 259 264 266 267 255 268 281 226 205 214 209 198 202 213 200 159 154 149 144 155 159 165 166 162 155 159 166 168 183 182 181 192 181 176 175 172
80 234 226 200 189 201 215 244 268 284 279 235 264 281 278 224 206 205 203 206 208 205 181 158 150 151 155 160 168 170 170 168 173 177 170 167 166 173 176 176 181 183 179 179
187 230 194 168 186 200 224 211 235 257 314 329 293 310 300 291 238 234 219 211 209 201 194 176 164 163 158 166 171 178 175 174 173 161 138 121 105 92 132 166 185 192 187 190
220 243 188 194 210 188 242 227 219 236 263 280 179 280 288 272 292 256 237 217 210 209 186 174 168 170 176 178 168 167 168 168 164 158 160 162 168 179 192 186 182 177 178 187
225 202 184 207 221 185 218 218 206 223 204 268 273 207 278 316 271 261 246 227 209 200 187 183 178 179 178 172 167 163 160 164 162 162 167 165 171 175 161 149 160 173 181 196
235 212 192 209 216 188 183 80 53 55 83 254 235 184 266 241 235 254 249 231 204 190 180 179 170 162 162 160 159 151 159 168 168 165 169 169 172 166 153 157 170 186 195 209
281 270 237 188 175 158 117 99 28 352 2 248 235 185 246 250 249 233 235 234 201 182 171 168 169 172 169 168 168 160 162 168 168 166 172 177 174 170 175 179 182 183 196 214
207 272 238 191 183 190 182 151 164 197 219 262 265 224 249 263 278 252 217 195 170 171 171 175 180 175 173 174 168 159 164 168 164 165 170 172 164 164 173 176 178 189 207 220
188 244 275 225 184 153 153 182 172 146 170 242 266 276 294 314 344 1 71 150 172 173 172 177 176 170 169 170 171 168 166 165 162 160 152 158 165 161 163 160 163 172 202 212
168 231 276 274 82 57 154 149 112 132 158 231 265 251 246 261 270 305 291 228 197 165 164 170 168 168 171 171 162 149 150 157 157 155 159 165 171 171 160 152 157 161 179 186
150 184 291 29 168 185 118 122 124 130 158 165 230 261 222 214 216 215 236 249 209 179 173 177 174 170 164 153 148 145 146 147 145 153 158 157 165 159 148 154 171 165 159 158
150 139 246 261 259 190 164 166 150 156 206 182 182 259 261 201 210 205 229 254 198 197 190 184 171 158 154 162 160 155 158 165 168 160 153 161 164 148 153 171 167 154 164 166
135 126 111 329 327 10 109 137 151 134 128 163 179 255 312 24 3 313 221 216 164 158 170 160 157 154 157 166 168 163 166 173 169 160 156 156 162 164 181 191 174 162 166 165
123 132 172 200 221 203 200 202 159 135 154 195 214 237 282 307 308 324 349 148 142 135 153 156 160 159 157 163 164 158 169 172 164 158 158 163 181 192 196 194 178 176 174 168
93 150 209 226 230 191 193 216 190 186 191 193 221 226 249 237 215 214 195 163 134 130 128 158 160 156 153 150 154 162 169 166 160 154 161 177 190 190 187 186 189 187 184 178
68 144 168 262 243 223 249 254 211 210 204 203 213 251 255 270 121 123 166 160 161 162 164 154 142 154 161 162 164 164 163 161 154 160 170 169 164 174 178 178 181 173 178 174
52 135 140 232 252 10 261 241 207 195 201 180 208 235 214 120 184 188 189 181 179 187 185 177 168 168 174 172 163 165 159 143 145 154 152 157 164 173 178 173 158 162 168 155
156 126 137 158 118 217 242 278 155 159 230 234 259 268 201 217 225 249 170 167 165 183 176 171 163 159 160 148 143 146 135 137 145 150 154 159 160 170 171 158 156 153 137 161
172 150 132 130 185 267 289 293 110 157 271 295 225 286 320 6 57 17 10 88 166 172 157 144 139 130 131 146 146 142 138 142 150 160 165 177 176 173 168 167 171 162 153 182
92 117 123 133 168 233 253 290 292 128 272 280 187 199 249 78 112 266 312 55 76 71 91 94 91 87 103 124 137 138 145 150 169 182 183 180 178 172 172 176 172 161 166 191
53 66 138 161 203 262 281 300 88 149 250 277 200 187 169 173 219 255 311 24 79 87 87 93 98 97 97 109 128 138 150 181 194 174 163 162 164 165 163 146 138 151 154 142
161 156 178 153 184 254 320 41 142 223 263 187 171 199 180 197 305 348 86 85 86 90 91 95 96 81 79 98 117 130 170 206 164 143 145 148 153 162 147 139 146 152 161 164
194 197 184 183 208 254 296 261 280 206 230 258 207 249 201 175 293 90 109 113 107 109 105 100 109 97 80 90 123 138 180 145 129 127 131 138 143 154 150 159 169 177 190 182
311 17 127 265 286 303 324 329 338 344 259 278 260 245 165 199 202 127 129 135 129 119 116 103 106 105 91 95 114 133 132 124 126 131 145 148 144 136 132 164 184 189 206 201
275 317 34 266 291 334 339 327 322 330 349 4 357 334 216 170 157 160 158 152 141 132 123 124 134 137 140 125 118 121 127 121 125 142 148 152 160 160 157 174 205 206 221 213
250 210 199 231 232 213 268 299 323 339 333 324 327 343 359 156 175 163 174 169 147 146 135 131 137 142 151 138 136 145 148 147 138 143 167 171 167 168 169 165 12 6 338 279